Time,TemperatureF,DewpointF,PressureIn,WindDirection,WindDirectionDegrees,WindSpeedMPH,WindSpeedGustMPH,Humidity,HourlyPrecipIn,Conditions,Clouds,dailyrainin,SoftwareType,DateUTC
2013-07-05 00:02:00,54.0,49.0,29.72,WSW,248,7.0,11.0,84,0.00,,,0.00,,2013-07-05 07:02:00,
2013-07-05 00:12:00,53.0,48.0,29.72,SSW,203,3.0,6.0,84,0.00,,,0.00,,2013-07-05 07:12:00,
2013-07-05 00:23:00,53.0,49.0,29.72,SSW,203,11.0,11.0,85,0.00,,,0.00,,2013-07-05 07:23:00,
2013-07-05 00:33:00,53.0,49.0,29.72,SW,225,4.0,7.0,86,0.00,,,0.00,,2013-07-05 07:33:00,
2013-07-05 00:53:00,53.0,49.0,29.72,WSW,248,8.0,9.0,87,0.00,,,0.00,,2013-07-05 07:53:00,
2013-07-05 01:02:00,53.0,50.0,29.72,SSW,203,6.0,12.0,88,0.00,,,0.00,,2013-07-05 08:02:00,
2013-07-05 01:12:00,53.0,50.0,29.72,WSW,248,6.0,6.0,88,0.00,,,0.00,,2013-07-05 08:12:00,
2013-07-05 01:22:00,53.0,50.0,29.72,WSW,248,6.0,12.0,88,0.00,,,0.00,,2013-07-05 08:22:00,
2013-07-05 01:33:00,53.0,50.0,29.72,SSW,203,5.0,10.0,88,0.00,,,0.00,,2013-07-05 08:33:00,
2013-07-05 01:43:00,53.0,50.0,29.72,WSW,248,10.0,10.0,89,0.00,,,0.00,,2013-07-05 08:43:00,
2013-07-05 01:53:00,53.0,50.0,29.72,SSW,203,2.0,11.0,89,0.00,,,0.00,,2013-07-05 08:53:00,
2013-07-05 02:03:00,53.0,50.0,29.72,SSW,203,4.0,8.0,89,0.00,,,0.00,,2013-07-05 09:03:00,
2013-07-05 02:12:00,53.0,50.0,29.72,SW,225,4.0,8.0,89,0.00,,,0.00,,2013-07-05 09:12:00,
2013-07-05 02:23:00,53.0,50.0,29.72,South,180,3.0,6.0,89,0.00,,,0.00,,2013-07-05 09:23:00,
2013-07-05 02:34:00,53.0,50.0,29.72,West,270,8.0,8.0,89,0.00,,,0.00,,2013-07-05 09:34:00,
2013-07-05 02:44:00,53.0,50.0,29.72,WSW,248,4.0,7.0,89,0.00,,,0.00,,2013-07-05 09:44:00,
2013-07-05 02:53:00,53.0,50.0,29.72,SW,225,4.0,4.0,89,0.00,,,0.00,,2013-07-05 09:53:00,
2013-07-05 03:02:00,53.0,50.0,29.72,SW,225,6.0,6.0,90,0.00,,,0.00,,2013-07-05 10:02:00,
2013-07-05 03:12:00,53.0,50.0,29.72,West,270,6.0,6.0,91,0.00,,,0.00,,2013-07-05 10:12:00,
2013-07-05 03:23:00,53.0,50.0,29.72,West,270,8.0,8.0,91,0.00,,,0.00,,2013-07-05 10:23:00,
2013-07-05 03:34:00,53.0,50.0,29.72,NW,315,10.0,10.0,91,0.00,,,0.00,,2013-07-05 10:34:00,
2013-07-05 03:43:00,53.0,51.0,29.72,West,270,6.0,8.0,92,0.00,,,0.00,,2013-07-05 10:43:00,
2013-07-05 03:54:00,53.0,51.0,29.72,SW,225,6.0,6.0,92,0.00,,,0.00,,2013-07-05 10:54:00,
2013-07-05 04:02:00,52.0,50.0,29.72,South,180,8.0,11.0,92,0.00,,,0.00,,2013-07-05 11:02:00,
2013-07-05 04:12:00,52.0,50.0,29.72,West,270,8.0,8.0,92,0.00,,,0.00,,2013-07-05 11:12:00,
2013-07-05 04:34:00,52.0,50.0,29.72,NW,315,8.0,8.0,92,0.00,,,0.00,,2013-07-05 11:34:00,
2013-07-05 04:44:00,52.0,50.0,29.72,WNW,293,6.0,6.0,92,0.00,,,0.00,,2013-07-05 11:44:00,
2013-07-05 04:53:00,52.0,50.0,29.72,WSW,248,3.0,3.0,93,0.00,,,0.00,,2013-07-05 11:53:00,
2013-07-05 05:03:00,52.0,50.0,29.72,West,270,6.0,8.0,93,0.00,,,0.00,,2013-07-05 12:03:00,
2013-07-05 05:12:00,52.0,50.0,29.72,WNW,293,4.0,4.0,93,0.00,,,0.00,,2013-07-05 12:12:00,
2013-07-05 05:23:00,52.0,50.0,29.72,SSW,203,3.0,6.0,93,0.00,,,0.00,,2013-07-05 12:23:00,
2013-07-05 05:33:00,52.0,50.0,29.72,WSW,248,4.0,5.0,93,0.00,,,0.00,,2013-07-05 12:33:00,
2013-07-05 05:43:00,52.0,50.0,29.72,SW,225,6.0,6.0,93,0.00,,,0.00,,2013-07-05 12:43:00,
2013-07-05 05:53:00,52.0,50.0,29.72,SSW,203,7.0,8.0,93,0.00,,,0.00,,2013-07-05 12:53:00,
2013-07-05 06:02:00,52.0,50.0,29.72,SW,225,6.0,6.0,93,0.00,,,0.00,,2013-07-05 13:02:00,
2013-07-05 06:12:00,52.0,50.0,29.72,SW,225,6.0,6.0,93,0.00,,,0.00,,2013-07-05 13:12:00,
2013-07-05 06:22:00,52.0,50.0,29.75,SW,225,8.0,8.0,92,0.00,,,0.00,,2013-07-05 13:22:00,
2013-07-05 06:35:00,53.0,51.0,29.75,SW,225,5.0,7.0,92,0.00,,,0.00,,2013-07-05 13:35:00,
2013-07-05 06:44:00,53.0,50.0,29.75,SW,225,4.0,10.0,91,0.00,,,0.00,,2013-07-05 13:44:00,
2013-07-05 06:53:00,53.0,50.0,29.75,SSW,203,4.0,5.0,91,0.00,,,0.00,,2013-07-05 13:53:00,
2013-07-05 07:03:00,53.0,50.0,29.75,SW,225,7.0,7.0,90,0.00,,,0.00,,2013-07-05 14:03:00,
2013-07-05 07:12:00,53.0,50.0,29.75,SSW,203,5.0,6.0,90,0.00,,,0.00,,2013-07-05 14:12:00,
2013-07-05 07:34:00,53.0,50.0,29.78,SSW,203,3.0,4.0,90,0.00,,,0.00,,2013-07-05 14:34:00,
2013-07-05 07:44:00,53.0,50.0,29.78,South,180,6.0,6.0,90,0.00,,,0.00,,2013-07-05 14:44:00,
2013-07-05 07:54:00,53.0,50.0,29.78,SW,225,5.0,5.0,89,0.00,,,0.00,,2013-07-05 14:54:00,
2013-07-05 08:12:00,53.0,50.0,29.78,SW,225,2.0,4.0,89,0.00,,,0.00,,2013-07-05 15:12:00,
2013-07-05 08:22:00,53.0,50.0,29.78,SW,225,3.0,3.0,88,0.00,,,0.00,,2013-07-05 15:22:00,
2013-07-05 08:33:00,53.0,50.0,29.78,South,180,2.0,6.0,89,0.00,,,0.00,,2013-07-05 15:33:00,
2013-07-05 08:43:00,53.0,50.0,29.78,South,180,4.0,5.0,88,0.00,,,0.00,,2013-07-05 15:43:00,
2013-07-05 08:53:00,53.0,50.0,29.78,SSW,203,10.0,10.0,88,0.00,,,0.00,,2013-07-05 15:53:00,
2013-07-05 09:11:00,53.0,49.0,29.78,SW,225,6.0,8.0,87,0.00,,,0.00,,2013-07-05 16:11:00,
2013-07-05 09:22:00,53.0,49.0,29.78,SSW,203,7.0,7.0,87,0.00,,,0.00,,2013-07-05 16:22:00,
2013-07-05 09:33:00,54.0,50.0,29.78,WSW,248,8.0,9.0,86,0.00,,,0.00,,2013-07-05 16:33:00,
2013-07-05 09:44:00,54.0,50.0,29.78,West,270,6.0,8.0,86,0.00,,,0.00,,2013-07-05 16:44:00,
2013-07-05 09:53:00,54.0,50.0,29.78,SW,225,9.0,9.0,85,0.00,,,0.00,,2013-07-05 16:53:00,
2013-07-05 10:01:00,54.0,49.0,29.78,SW,225,9.0,9.0,84,0.00,,,0.00,,2013-07-05 17:01:00,
2013-07-05 10:11:00,54.0,49.0,29.78,SW,225,9.0,9.0,83,0.00,,,0.00,,2013-07-05 17:11:00,
2013-07-05 10:22:00,55.0,50.0,29.78,SSW,203,6.0,6.0,83,0.00,,,0.00,,2013-07-05 17:22:00,
2013-07-05 10:32:00,55.0,50.0,29.78,SW,225,10.0,10.0,82,0.00,,,0.00,,2013-07-05 17:32:00,
2013-07-05 10:42:00,55.0,49.0,29.78,SW,225,6.0,6.0,81,0.00,,,0.00,,2013-07-05 17:42:00,
2013-07-05 10:53:00,55.0,49.0,29.78,SW,225,4.0,4.0,80,0.00,,,0.00,,2013-07-05 17:53:00,
2013-07-05 11:01:00,56.0,50.0,29.78,SW,225,5.0,5.0,79,0.00,,,0.00,,2013-07-05 18:01:00,
2013-07-05 11:11:00,56.0,50.0,29.78,SSW,203,6.0,6.0,79,0.00,,,0.00,,2013-07-05 18:11:00,
2013-07-05 11:33:00,56.0,49.0,29.78,SSW,203,7.0,7.0,78,0.00,,,0.00,,2013-07-05 18:33:00,
2013-07-05 11:42:00,56.0,49.0,29.78,SW,225,5.0,8.0,77,0.00,,,0.00,,2013-07-05 18:42:00,
2013-07-05 11:53:00,56.0,49.0,29.78,SSW,203,7.0,7.0,77,0.00,,,0.00,,2013-07-05 18:53:00,
2013-07-05 12:01:00,56.0,49.0,29.81,SSW,203,5.0,11.0,77,0.00,,,0.00,,2013-07-05 19:01:00,
2013-07-05 12:12:00,57.0,50.0,29.81,SW,225,8.0,8.0,76,0.00,,,0.00,,2013-07-05 19:12:00,
2013-07-05 12:22:00,57.0,50.0,29.81,WSW,248,6.0,6.0,76,0.00,,,0.00,,2013-07-05 19:22:00,
2013-07-05 12:33:00,57.0,49.0,29.78,South,180,9.0,9.0,75,0.00,,,0.00,,2013-07-05 19:33:00,
2013-07-05 12:42:00,57.0,49.0,29.81,SW,225,6.0,7.0,75,0.00,,,0.00,,2013-07-05 19:42:00,
2013-07-05 12:52:00,57.0,49.0,29.81,SW,225,4.0,6.0,75,0.00,,,0.00,,2013-07-05 19:52:00,
2013-07-05 13:01:00,57.0,49.0,29.78,SSW,203,5.0,10.0,75,0.00,,,0.00,,2013-07-05 20:01:00,
2013-07-05 13:11:00,57.0,49.0,29.78,South,180,8.0,8.0,75,0.00,,,0.00,,2013-07-05 20:11:00,
2013-07-05 13:53:00,57.0,49.0,29.78,SSW,203,6.0,6.0,74,0.00,,,0.00,,2013-07-05 20:53:00,
2013-07-05 14:01:00,57.0,49.0,29.78,SSW,203,8.0,10.0,74,0.00,,,0.00,,2013-07-05 21:01:00,
2013-07-05 14:11:00,57.0,49.0,29.78,SW,225,8.0,12.0,74,0.00,,,0.00,,2013-07-05 21:11:00,
2013-07-05 14:34:00,58.0,50.0,29.78,South,180,6.0,6.0,74,0.00,,,0.00,,2013-07-05 21:34:00,
2013-07-05 14:42:00,57.0,49.0,29.78,SW,225,9.0,9.0,74,0.00,,,0.00,,2013-07-05 21:42:00,
2013-07-05 14:53:00,57.0,49.0,29.78,SW,225,6.0,6.0,74,0.00,,,0.00,,2013-07-05 21:53:00,
2013-07-05 15:01:00,57.0,49.0,29.78,SW,225,9.0,9.0,74,0.00,,,0.00,,2013-07-05 22:01:00,
2013-07-05 15:11:00,57.0,49.0,29.78,SW,225,6.0,6.0,74,0.00,,,0.00,,2013-07-05 22:11:00,
2013-07-05 15:33:00,57.0,49.0,29.78,SSW,203,10.0,10.0,74,0.00,,,0.00,,2013-07-05 22:33:00,
2013-07-05 15:43:00,57.0,49.0,29.78,SW,225,6.0,6.0,74,0.00,,,0.00,,2013-07-05 22:43:00,
2013-07-05 15:53:00,57.0,49.0,29.78,SSW,203,10.0,10.0,74,0.00,,,0.00,,2013-07-05 22:53:00,
2013-07-05 16:02:00,58.0,50.0,29.78,SW,225,10.0,10.0,74,0.00,,,0.00,,2013-07-05 23:02:00,
2013-07-05 16:11:00,58.0,49.0,29.78,SW,225,9.0,9.0,73,0.00,,,0.00,,2013-07-05 23:11:00,
2013-07-05 16:42:00,58.0,50.0,29.78,SE,135,7.0,7.0,74,0.00,,,0.00,,2013-07-05 23:42:00,
2013-07-05 16:53:00,58.0,49.0,29.78,SSW,203,5.0,5.0,73,0.00,,,0.00,,2013-07-05 23:53:00,
2013-07-05 17:01:00,58.0,49.0,29.78,SW,225,7.0,7.0,73,0.00,,,0.00,,2013-07-06 00:01:00,
2013-07-05 17:11:00,58.0,49.0,29.78,SW,225,6.0,14.0,73,0.00,,,0.00,,2013-07-06 00:11:00,
2013-07-05 17:42:00,58.0,49.0,29.75,WSW,248,4.0,6.0,72,0.00,,,0.00,,2013-07-06 00:42:00,
2013-07-05 17:53:00,57.0,48.0,29.75,SW,225,6.0,10.0,73,0.00,,,0.00,,2013-07-06 00:53:00,
2013-07-05 18:01:00,57.0,49.0,29.75,SSW,203,9.0,13.0,74,0.00,,,0.00,,2013-07-06 01:01:00,
2013-07-05 18:11:00,57.0,49.0,29.75,SW,225,17.0,17.0,74,0.00,,,0.00,,2013-07-06 01:11:00,
2013-07-05 18:22:00,57.0,49.0,29.75,SSW,203,8.0,9.0,74,0.00,,,0.00,,2013-07-06 01:22:00,
2013-07-05 18:33:00,57.0,49.0,29.75,NW,315,7.0,17.0,74,0.00,,,0.00,,2013-07-06 01:33:00,
2013-07-05 18:42:00,56.0,48.0,29.75,SW,225,7.0,15.0,75,0.00,,,0.00,,2013-07-06 01:42:00,
2013-07-05 18:52:00,56.0,48.0,29.75,SSW,203,4.0,7.0,75,0.00,,,0.00,,2013-07-06 01:52:00,
2013-07-05 19:02:00,55.0,48.0,29.75,SSW,203,8.0,15.0,76,0.00,,,0.00,,2013-07-06 02:02:00,
2013-07-05 19:33:00,54.0,49.0,29.75,SW,225,6.0,6.0,82,0.00,,,0.00,,2013-07-06 02:33:00,
2013-07-05 19:43:00,54.0,49.0,29.75,South,180,6.0,6.0,82,0.00,,,0.00,,2013-07-06 02:43:00,
2013-07-05 19:52:00,54.0,49.0,29.75,SSW,203,5.0,9.0,82,0.00,,,0.00,,2013-07-06 02:52:00,
2013-07-05 20:02:00,54.0,49.0,29.75,SW,225,5.0,6.0,83,0.00,,,0.00,,2013-07-06 03:02:00,
2013-07-05 20:11:00,54.0,49.0,29.75,SSW,203,6.0,9.0,83,0.00,,,0.00,,2013-07-06 03:11:00,
2013-07-05 20:22:00,54.0,49.0,29.75,SW,225,6.0,6.0,84,0.00,,,0.00,,2013-07-06 03:22:00,
2013-07-05 20:34:00,54.0,50.0,29.75,SW,225,6.0,6.0,85,0.00,,,0.00,,2013-07-06 03:34:00,
2013-07-05 20:43:00,53.0,49.0,29.78,WSW,248,6.0,8.0,86,0.00,,,0.00,,2013-07-06 03:43:00,
2013-07-05 20:52:00,53.0,49.0,29.78,SSW,203,8.0,8.0,86,0.00,,,0.00,,2013-07-06 03:52:00,
2013-07-05 21:01:00,53.0,49.0,29.78,South,180,3.0,6.0,87,0.00,,,0.00,,2013-07-06 04:01:00,
2013-07-05 21:12:00,53.0,49.0,29.78,WSW,248,4.0,10.0,87,0.00,,,0.00,,2013-07-06 04:12:00,
2013-07-05 21:22:00,53.0,49.0,29.78,WSW,248,4.0,4.0,87,0.00,,,0.00,,2013-07-06 04:22:00,
2013-07-05 21:33:00,53.0,49.0,29.78,SW,225,4.0,12.0,87,0.00,,,0.00,,2013-07-06 04:33:00,
2013-07-05 21:43:00,53.0,49.0,29.78,WSW,248,5.0,7.0,87,0.00,,,0.00,,2013-07-06 04:43:00,
2013-07-05 21:53:00,53.0,50.0,29.78,SSW,203,4.0,6.0,88,0.00,,,0.00,,2013-07-06 04:53:00,
2013-07-05 22:02:00,53.0,49.0,29.78,SSW,203,3.0,3.0,87,0.00,,,0.00,,2013-07-06 05:02:00,
2013-07-05 22:11:00,53.0,49.0,29.78,SSW,203,9.0,9.0,87,0.00,,,0.00,,2013-07-06 05:11:00,
2013-07-05 22:22:00,53.0,50.0,29.78,SW,225,6.0,11.0,88,0.00,,,0.00,,2013-07-06 05:22:00,
2013-07-05 22:33:00,53.0,50.0,29.78,West,270,3.0,13.0,88,0.00,,,0.00,,2013-07-06 05:33:00,
2013-07-05 22:42:00,53.0,50.0,29.78,South,180,3.0,3.0,88,0.00,,,0.00,,2013-07-06 05:42:00,
2013-07-05 22:52:00,53.0,50.0,29.78,SSW,203,9.0,9.0,88,0.00,,,0.00,,2013-07-06 05:52:00,
2013-07-05 23:01:00,53.0,50.0,29.78,SW,225,5.0,10.0,88,0.00,,,0.00,,2013-07-06 06:01:00,
2013-07-05 23:12:00,53.0,50.0,29.78,SW,225,8.0,13.0,89,0.00,,,0.00,,2013-07-06 06:12:00,
2013-07-05 23:33:00,53.0,50.0,29.78,SW,225,8.0,8.0,88,0.00,,,0.00,,2013-07-06 06:33:00,
2013-07-05 23:43:00,53.0,50.0,29.78,SW,225,3.0,6.0,89,0.00,,,0.00,,2013-07-06 06:43:00,
2013-07-05 23:53:00,53.0,50.0,29.78,South,180,10.0,10.0,89,0.00,,,0.00,,2013-07-06 06:53:00,